Location: ????????
(55.0559°N, 39.1270°E)
Time: 18:31:01
(UTC+00:00)

NOSS 2-2 (E) - Pass Details

Date: 15 November 2025
Orbit: 385 x 1723 km, 63.3° (Epoch: 14 December)

Event Time Altitude Azimuth Distance (km) Brightness Sun altitude
Exits shadow 02:24:27 40° 358° (N) 738 3.9 -21.3°
Maximum altitude 02:25:07 45° 31° (NNE) 696 4.0 -21.2°
Drops below altitude 10° 02:29:16 10° 105° (ESE) 1,983 7.3 -20.6°
Sets 02:32:00 0° 112° (ESE) 3,103 8.5 -20.2°
